DW6400 Weather Reports


time (UTC)temp
C
wind
direction
speed
KPH
gust
KPH
rain 1hr
cm
rain 24hr
cm
rain mn
cm
humidity
%
barometer
mb
20180217190358 9 360 0.0 0.0 0.00 0.18 0.03 28 1019.5
20180217184856 8 360 0.0 6.4 0.00 0.20 0.03 31 1019.6
20180217183350 7 105 1.6 6.4 0.00 0.20 0.03 32 1019.8
20180217181848 7 123 1.6 9.7 0.00 0.20 0.03 31 1020.0
20180217180340 7 123 1.6 6.4 0.00 0.20 0.03 33 1020.1
20180217174837 6 122 0.0 4.8 0.00 0.23 0.03 36 1020.3
20180217173332 5 123 3.2 11.3 0.00 0.23 0.03 36 1020.4
20180217171832 5 130 3.2 11.3 0.00 0.23 0.03 36 1020.2
20180217170326 4 111 1.6 6.4 0.00 0.23 0.03 36 1020.4
20180217164837 4 111 3.2 9.7 0.00 0.25 0.03 37 1020.5
20180217163319 3 110 3.2 11.3 0.00 0.25 0.03 36 1020.6
20180217161820 2 109 3.2 9.7 0.00 0.25 0.03 38 1020.7
20180217160315 1 90 1.6 6.4 0.00 0.25 0.03 40 1020.8
20180217154813 1 90 3.2 4.8 0.00 0.25 0.03 43 1020.8
20180217153312 0 90 0.0 4.8 0.00 0.25 0.03 50 1020.6
20180217151811 -2 90 0.0 1.6 0.00 0.25 0.03 60 1020.5
20180217150309 -3 90 0.0 4.8 0.00 0.25 0.03 60 1020.5
20180217144807 -4 90 0.0 3.2 0.00 0.25 0.03 60 1020.5
20180217143304 -5 90 0.0 11.3 0.00 0.25 0.03 59 1020.1
20180217141801 -4 88 1.6 3.2 0.00 0.25 0.03 57 1019.9
20180217140256 -3 88 0.0 0.0 0.00 0.25 0.03 55 1020.0
20180217134757 -3 88 0.0 1.6 0.00 0.25 0.03 53 1019.8
20180217133251 -3 88 0.0 1.6 0.00 0.25 0.03 52 1019.7
20180217131748 -2 88 0.0 1.6 0.00 0.25 0.03 52 1019.4
20180217130249 -2 88 1.6 6.4 0.00 0.25 0.03 52 1019.1
20180217124744 -2 88 1.6 9.7 0.00 0.25 0.03 53 1018.7
20180217123241 -2 88 0.0 9.7 0.00 0.25 0.03 53 1018.4
20180217121737 -1 333 1.6 4.8 0.00 0.25 0.03 46 1018.2
20180217120237 -1 333 0.0 3.2 0.00 0.25 0.03 42 1018.1
20180217114728 0 333 0.0 0.0 0.00 0.25 0.03 39 1018.0
20180217113230 0 332 3.2 6.4 0.00 0.25 0.03 37 1017.8
20180217111727 0 333 0.0 3.2 0.00 0.25 0.03 37 1017.7
20180217110224 1 333 0.0 3.2 0.00 0.25 0.03 35 1017.9
20180217104719 1 333 0.0 4.8 0.00 0.25 0.03 32 1017.4
20180217103215 2 333 0.0 9.7 0.00 0.25 0.03 30 1016.9
20180217101712 2 329 3.2 12.9 0.03 0.25 0.03 30 1016.7
20180217100211 2 272 4.8 19.3 0.03 0.25 0.03 30 1016.6
20180217094710 2 269 8.0 14.5 0.03 0.25 0.03 31 1016.3
20180217093207 2 318 6.4 22.5 0.03 0.25 0.03 33 1016.4
20180217091705 2 360 6.4 19.3 0.00 0.23 0.00 33 1016.6
20180217090203 2 360 4.8 14.5 0.00 0.23 0.00 35 1016.2
20180217084703 2 360 4.8 20.9 0.00 0.23 0.00 35 1016.4
20180217083203 2 360 4.8 17.7 0.00 0.23 0.00 36 1016.4
20180217081701 2 360 4.8 20.9 0.00 0.23 0.00 35 1016.3
20180217080203 3 360 8.0 17.7 0.00 0.23 0.00 36 1016.5
20180217074658 2 360 4.8 12.9 0.00 0.23 0.00 37 1016.6
20180217073156 2 360 4.8 17.7 0.00 0.23 0.00 38 1016.6
20180217071653 2 360 3.2 17.7 0.00 0.23 0.00 40 1016.7
20180217070149 2 360 4.8 12.9 0.00 0.23 0.00 41 1016.6
20180217064649 1 360 1.6 6.4 0.00 0.23 0.23 44 1016.4
20180217063151 0 360 1.6 6.4 0.00 0.23 0.23 47 1016.1
20180217061648 -1 360 1.6 6.4 0.00 0.23 0.23 48 1015.7
20180217060148 -1 360 0.0 1.6 0.00 0.23 0.23 47 1015.9
20180217054645 0 360 0.0 3.2 0.00 0.23 0.23 44 1015.8
20180217053145 0 360 0.0 0.0 0.00 0.23 0.23 44 1016.0
20180217051646 0 360 0.0 0.0 0.00 0.23 0.23 43 1016.0
20180217050143 0 360 0.0 0.0 0.00 0.23 0.23 43 1015.8
20180217044648 -1 360 0.0 1.6 0.00 0.23 0.23 43 1015.7
20180217043145 -2 360 1.6 4.8 0.00 0.23 0.23 45 1016.1
20180217041643 -2 360 0.0 0.0 0.00 0.23 0.23 51 1015.8
20180217040144 -2 360 0.0 1.6 0.00 0.23 0.23 54 1015.8
20180217034640 -1 360 0.0 1.6 0.00 0.23 0.23 57 1016.0
20180217033141 -1 360 0.0 4.8 0.00 0.23 0.23 56 1015.6
20180217031638 -1 360 0.0 0.0 0.00 0.23 0.23 56 1015.5
20180217030140 -2 360 0.0 0.0 0.00 0.23 0.23 62 1015.3
20180217024639 -2 360 0.0 1.6 0.00 0.23 0.23 68 1015.7
20180217023136 -2 144 0.0 3.2 0.00 0.23 0.23 71 1015.7
20180217021639 -2 144 0.0 4.8 0.00 0.23 0.23 73 1015.6
20180217020137 -2 144 0.0 6.4 0.00 0.23 0.23 74 1015.5
20180217014634 -2 360 1.6 6.4 0.00 0.23 0.23 74 1015.4
20180217013136 -2 360 1.6 4.8 0.00 0.23 0.23 74 1015.4
20180217011634 -1 360 0.0 4.8 0.00 0.23 0.23 77 1015.5
20180217010132 -1 360 0.0 8.0 0.00 0.23 0.23 76 1015.4
20180217004632 0 360 3.2 6.4 0.00 0.23 0.23 74 1015.2
20180217003132 0 360 0.0 8.0 0.00 0.23 0.23 74 1015.2
20180217001628 0 360 3.2 8.0 0.00 0.23 0.23 72 1015.4
20180216234623 0 360 1.6 9.7 0.00 0.23 0.23 70 1016.4
20180216233122 1 360 6.4 14.5 0.00 0.23 0.23 68 1016.9
20180216231621 1 360 3.2 9.7 0.00 0.23 0.23 66 1017.1
20180216230122 1 360 1.6 8.0 0.00 0.23 0.23 67 1017.4
20180216224621 2 360 1.6 17.7 0.03 0.23 0.23 63 1017.5
20180216223119 2 360 1.6 8.0 0.03 0.23 0.23 62 1017.8
20180216221618 2 360 1.6 8.0 0.03 0.23 0.23 66 1017.7
20180216220115 3 360 3.2 8.0 0.05 0.23 0.23 62 1017.5
20180216214616 2 360 0.0 8.0 0.03 0.20 0.20 62 1017.6
20180216213116 1 360 1.6 17.7 0.03 0.20 0.20 65 1017.5
20180216211613 1 360 4.8 12.9 0.03 0.20 0.20 68 1017.4
20180216210113 0 360 8.0 22.5 0.03 0.18 0.18 68 1017.2
20180216204611 0 360 12.9 33.8 0.03 0.18 0.18 64 1017.4
20180216203109 1 360 11.3 20.9 0.08 0.18 0.18 62 1017.8
20180216201606 1 360 6.4 19.3 0.10 0.18 0.18 63 1018.3
20180216200102 2 360 6.4 19.3 0.08 0.15 0.15 56 1018.6
20180216194602 3 360 8.0 19.3 0.08 0.13 0.13 51 1018.9
20180216193059 2 148 9.7 20.9 0.05 0.10 0.10 52 1019.4